www.pogodaiklimat.ru

Погода и климат >> Архив погоды >> Австралия >> Квинсленд >> Рома


ПОГОДА в Роме

  • Прогноз погоды в Роме
  • Монитор погоды в Роме

АРХИВ ПОГОДЫ в Роме

Время (UTC), дата Ветер
(напр.,м/с)
 
Видим.   Явления Облачность Т
(С)
Тd
(С)
f
(%)
Тe
(С)
Тes
(С)
Комфортность P
(гПа)
Po
(гПа)
Тmin
(С)
Tmax
(С)
R
(мм)
R24
(мм)
S
(см)
17 17.03 ЮВ 2 н/о н/о +20.7 +17.5 82 +25 +25 комфорт 1011.7 976.9
18 17.03 ЮВ 3 н/о н/о +20.2 +17.4 84 +24 +24 комфорт 1011.7 976.9
20 17.03 ЮВ 2 н/о 1/0
[]
+19.7 +17.5 87 +23 +23 комфорт 1012.7 977.9
21 17.03 ЮВ 1 н/о н/о +20.9 +17.9 83 +26 +26 душно 1013.3 978.5
23 17.03 С 2 н/о н/о +25.2 +18.9 68 +30 +30 душно 1013.6 978.8
00 18.03 С 2 н/о н/о +28.4 +18.5 55 +33 +33 очень
душно
1013.5 978.7
02 18.03 Ю 3 н/о н/о +31.2 +13.0 33 +32 +32 жарко 1012.1 977.3 +19.6
03 18.03 Ю 3 н/о н/о +30.0 +12.4 34 +31 +31 жарко 1011.2 976.4
05 18.03 Ю 5 н/о 3/0
[]
+32.1 +10.2 26 +32 +36 жарко 1009.1 974.4
06 18.03 Ю 6 н/о н/о +33.0 +9.1 23 +32 +32 жарко 1008.8 974.1
08 18.03 Ю 6 н/о н/о +30.4 +9.8 28 +30 +30 жарко 1009.6 974.9
09 18.03 Ю 4 н/о н/о +27.2 +11.3 37 +28 +28 жарко 1010.2 975.5
11 18.03 В 2 н/о н/о +24.8 +12.1 45 +26 +26 жарко 1012.0 977.2
12 18.03 В 2 н/о н/о +23.6 +12.9 51 +26 +26 жарко 1012.4 977.6
14 18.03 В 2 н/о 5/0
[]
+22.7 +14.3 59 +26 +26 жарко 1012.2 977.4 +33.9
15 18.03 В 2 н/о н/о +21.7 +13.6 60 +24 +24 комфорт 1011.9 977.1
17 18.03 штиль 0 н/о 1/0
[]
+21.4 +13.1 59 +24 +24 комфорт 1011.1 976.3
18 18.03 штиль 0 н/о н/о +19.2 +14.2 73 +20 +20 1010.8 976.1
20 18.03 ЮЗ 3 н/о н/о +18.0 +15.1 83 +18 +18 1011.4 976.6
21 18.03 З 2 н/о н/о +20.1 +16.5 80 +23 +23 комфорт 1011.8 977.0
23 18.03 С 3 н/о н/о +28.2 +17.4 52 +32 +32 душно 1012.9 978.1
00 19.03 ЮЗ 2 н/о н/о +30.0 +11.5 32 +31 +31 жарко 1013.1 978.3
02 19.03 СЗ 3 н/о н/о +33.0 +9.1 23 +32 +32 жарко 1011.5 976.7 +18.0
03 19.03 В 3 н/о н/о +33.2 +8.6 22 +32 +32 жарко 1010.3 975.6
05 19.03 ЮЗ 5 н/о н/о +34.8 +6.2 17 +33 +33 жарко 1008.3 973.6
06 19.03 Ю 5 н/о н/о +34.4 +5.8 17 +32 +32 жарко 1008.3 973.6
08 19.03 Ю 4 н/о н/о +31.9 +6.2 20 +30 +30 жарко 1008.8 974.1
09 19.03 Ю 4 н/о н/о +28.0 +7.8 28 +28 +28 жарко 1009.3 974.6
11 19.03 СВ 2 н/о н/о +25.2 +10.6 40 +26 +26 жарко 1010.6 975.9
12 19.03 С 2 н/о н/о +23.9 +10.9 44 +25 +25 комфорт 1011.0 976.2
14 19.03 З 3 н/о н/о +20.4 +12.1 59 +23 +23 комфорт 1010.5 975.8 +35.4
15 19.03 С 2 н/о н/о +20.1 +13.8 67 +23 +23 комфорт 1010.3 975.6
17 19.03 С 2 н/о н/о +19.5 +12.8 65 +22 +22 комфорт 1009.4 974.7
18 19.03 ЮЗ 2 н/о н/о +18.3 +13.2 72 +19 +19 1009.4 974.7
20 19.03 СЗ 1 н/о н/о +16.7 +13.2 80 +18 +18 1010.7 976.0
21 19.03 штиль 0 н/о н/о +19.7 +15.1 75 +22 +22 комфорт 1011.3 976.5
23 19.03 С 2 н/о н/о +26.3 +13.1 44 +28 +28 жарко 1012.2 977.4
00 20.03 З 3 н/о н/о +30.7 +13.5 35 +32 +32 жарко 1012.2 977.4
02 20.03 Ю 3 н/о 1/0
[]
+34.4 +6.7 18 +32 +46 жарко 1011.0 976.2 +16.4
03 20.03 Ю 4 н/о н/о +34.9 +6.2 17 +33 +33 жарко 1010.1 975.4
05 20.03 Ю 6 н/о н/о +34.3 +3.0 14 +31 +31 жарко 1008.6 973.9
06 20.03 Ю 6 н/о н/о +34.2 +1.9 13 +31 +31 жарко 1008.4 973.7
08 20.03 В 2 н/о н/о +31.5 +3.5 17 +29 +29 жарко 1008.9 974.2
09 20.03 В 2 н/о н/о +28.4 +5.9 24 +27 +27 жарко 1009.2 974.5
11 20.03 С 2 н/о н/о +23.9 +11.6 46 +25 +25 комфорт 1010.7 976.0
12 20.03 С 4 н/о н/о +22.8 +10.9 47 +25 +25 комфорт 1011.4 976.6
14 20.03 С 2 н/о н/о +21.1 +11.4 54 +23 +23 комфорт 1011.4 976.6 +36.6
15 20.03 З 1 н/о н/о +20.0 +12.7 63 +23 +23 комфорт 1011.1 976.3
17 20.03 С 3 н/о н/о +19.2 +15.1 77 +21 +21 комфорт 1010.6 975.9
18 20.03 С 2 н/о н/о +18.8 +14.5 76 +20 +20 1010.3 975.6
20 20.03 С 3 н/о н/о +18.5 +14.8 79 +19 +19 1011.0 976.2
21 20.03 С 3 н/о н/о +20.9 +15.9 73 +25 +25 комфорт 1011.9 977.1
23 20.03 З 3 н/о н/о +29.2 +15.3 43 +32 +32 душно 1012.9 978.1
00 21.03 ЮЗ 2 н/о н/о +31.1 +11.5 30 +31 +31 жарко 1012.9 978.1
02 21.03 ЮЗ 3 н/о н/о +34.3 +6.6 18 +32 +32 жарко 1011.9 977.1 +18.3
03 21.03 З 2 н/о н/о +34.9 +5.4 16 +32 +32 жарко 1010.6 975.9
05 21.03 Ю 3 н/о н/о +35.2 +4.7 15 +32 +32 жарко 1008.9 974.2
06 21.03 Ю 2 н/о н/о +35.5 +3.9 14 +33 +33 жарко 1008.5 973.8
08 21.03 ЮВ 3 н/о н/о +32.8 +4.6 17 +30 +30 жарко 1009.3 974.6
09 21.03 ЮВ 1 н/о н/о +29.9 +5.2 21 +28 +28 жарко 1009.9 975.2
11 21.03 СВ 3 н/о 4/0
[]
+25.6 +9.4 36 +26 +26 жарко 1011.9 977.1
12 21.03 С 4 н/о н/о +24.6 +11.2 43 +26 +26 жарко 1012.1 977.3
14 21.03 С 4 н/о н/о +24.2 +12.2 47 +26 +26 жарко 1011.9 977.1 +37.0
15 21.03 С 2 н/о н/о +24.0 +12.0 47 +26 +26 жарко 1011.8 977.0
17 21.03 С 3 н/о н/о +21.5 +13.9 62 +24 +24 комфорт 1011.6 976.8
18 21.03 С 3 н/о н/о +22.0 +14.6 63 +25 +25 комфорт 1011.6 976.8
23 21.03 С 7 н/о н/о +27.8 +17.6 54 +32 +32 душно 1015.1 980.2
02 22.03 С 5 н/о 1/1 1500 м
[]
+32.8 +14.9 34 +35 +44 душно 1013.6 978.8 +20.8
03 22.03 СВ 4 н/о н/о +34.5 +12.8 27 +35 +35 очень
жарко
1012.4 977.6
05 22.03 С 3 н/о 3/0 2000 м
[]
+35.3 +11.0 23 +35 +41 очень
жарко
1010.4 975.7
06 22.03 В 3 н/о н/о +33.8 +9.8 23 +33 +33 жарко 1010.0 975.3
08 22.03 В 3 н/о 8/0
[]
+32.6 +10.6 26 +32 +32 жарко 1010.5 975.8
09 22.03 СВ 3 н/о н/о +29.4 +11.0 32 +30 +30 жарко 1011.1 976.3
11 22.03 С 2 н/о 10/0
[]
+27.3 +11.7 38 +28 +28 жарко 1012.6 977.8
12 22.03 С 3 н/о н/о +26.3 +12.0 41 +28 +28 жарко 1012.8 978.0
14 22.03 С 3 н/о 1/0
[]
+24.5 +11.8 45 +26 +26 жарко 1012.7 977.9 +36.7
15 22.03 С 3 н/о н/о +23.3 +12.3 50 +26 +26 жарко 1012.4 977.6
17 22.03 С 4 н/о н/о +23.6 +13.8 54 +26 +26 жарко 1012.3 977.5
18 22.03 С 3 н/о н/о +22.4 +14.0 59 +26 +26 жарко 1012.5 977.7
20 22.03 С 4 н/о н/о +22.3 +16.3 69 +27 +27 душно 1013.6 978.8
21 22.03 С 5 н/о н/о +23.6 +16.6 65 +27 +27 жарко 1014.2 979.3
23 22.03 С 6 н/о н/о +29.0 +15.5 44 +32 +32 душно 1015.6 980.7
00 23.03 С 5 н/о н/о +30.8 +14.4 37 +33 +33 душно 1015.1 980.2
02 23.03 СЗ 2 н/о н/о +33.1 +13.2 30 +34 +34 очень
жарко
1013.7 978.9 +21.6
03 23.03 СВ 4 н/о н/о +34.7 +11.2 24 +34 +34 очень
жарко
1012.7 977.9
05 23.03 В 3 н/о н/о +35.7 +10.7 22 +35 +35 очень
жарко
1011.3 976.5
06 23.03 В 5 н/о н/о +35.9 +10.9 22 +35 +35 очень
жарко
1010.8 976.1
08 23.03 СВ 5 н/о 8/0
[]
+33.5 +11.4 26 +33 +33 жарко 1011.0 976.2
09 23.03 СВ 4 н/о н/о +30.4 +11.4 31 +31 +31 жарко 1011.7 976.9
11 23.03 С 3 н/о н/о +27.7 +12.5 39 +29 +29 жарко 1013.0 978.2
12 23.03 С 3 н/о н/о +26.0 +13.2 45 +28 +28 жарко 1013.1 978.3
14 23.03 С 3 н/о н/о +23.7 +13.3 52 +26 +26 жарко 1013.0 978.2 +37.1
15 23.03 С 3 н/о н/о +23.3 +13.8 55 +27 +27 душно 1013.0 978.2
17 23.03 С 3 н/о н/о +21.4 +13.8 62 +24 +24 комфорт 1012.3 977.5
18 23.03 С 4 н/о н/о +21.3 +14.0 63 +24 +24 комфорт 1012.0 977.2
20 23.03 С 4 н/о н/о +21.2 +14.6 66 +24 +24 комфорт 1013.1 978.3
21 23.03 С 4 н/о н/о +23.5 +15.8 62 +27 +27 душно 1014.1 979.2
23 23.03 С 5 н/о н/о +29.8 +16.9 46 +33 +33 душно 1014.8 979.9
00 24.03 С 4 н/о н/о +31.9 +15.0 36 +34 +34 душно 1014.5 979.6
02 24.03 С 4 н/о н/о +35.8 +13.3 26 +36 +36 очень
жарко
1013.2 978.4 +19.8
03 24.03 С 5 н/о н/о +36.9 +11.7 22 +36 +36 очень
жарко
1012.2 977.4
05 24.03 СВ 5 н/о н/о +37.0 +7.0 16 +35 +35 очень
жарко
1010.2 975.5
06 24.03 В 6 н/о н/о +37.1 +6.2 15 +35 +35 очень
жарко
1009.6 974.9
08 24.03 СВ 5 н/о н/о +33.4 +8.1 21 +32 +32 жарко 1010.4 975.7
09 24.03 СВ 4 н/о н/о +30.8 +9.1 26 +30 +30 жарко 1011.1 976.3
11 24.03 С 4 н/о н/о +27.3 +9.6 33 +28 +28 жарко 1012.0 977.2
12 24.03 С 3 н/о н/о +26.2 +10.0 36 +27 +27 жарко 1012.2 977.4
14 24.03 С 4 н/о н/о +26.1 +11.5 40 +27 +27 жарко 1011.5 976.7 +38.0

 

Местоположение метеостанции Рома (Квинсленд, Австралия): широта -26.55 долгота 148.78 высота над уровнем моря 304 м.

В архиве по умолчанию представлена погода в Роме за последнюю неделю. Архивные данные за месяц целиком и за предыдущие месяцы, начиная с января 2011 года, Вы можете получить, выбрав интересующий диапазон дат из раскрывающегося списка и нажав кнопку "Ввод!".


*Определитесь, кто Вы:
робот инопланетянин человек

Внимание! Время в таблицах - всемирное. Для получения местного времени необходимо прибавить поправку, которая равна 10 ч.

Смотрите также архив погоды в соседних городах и на ближайших метеорологических станциях:

Погода в Майлсе (Квинсленд, Австралия) (140 км)
Погода в Сейнт Джордж (Квинсленд, Австралия) (168 км)
Погода в Роллстоне (Квинсленд, Австралия) (232 км)
Погода в Чарвилле (Квинсленд, Австралия) (251 км)
Погода в Долби (Квинсленд, Австралия) (256 км)
Погода в Тангуле (Квинсленд, Австралия) (292 км)
Погода в Инглвуде (Квинсленд, Австралия) (293 км)
Погода в Гейнде (Квинсленд, Австралия) (302 км)
Погода в Кингарое (Квинсленд, Австралия) (303 км)
Погода в Оки (Квинсленд, Австралия) (308 км)

Пояснения к столбцам:

Ветер - указаны скорость ветра в м/с - средняя за 10 мин, порывы в срок и между сроками (в фигурных скобках) и направление, откуда дует ветер: С - северный, СВ - северо-восточный, В - восточный, ЮВ - юго-восточный, Ю - южный, ЮЗ - юго-западный, З - западный, СЗ - северо-западный.
Видимость - горизонтальная дальность видимости в метрах или километрах. При видимости от 1 до 10 км при отсутствии осадков обычно наблюдается дымка, при ухудшении видимости до 1 км и менее - туман. В сухую погоду видимость может ухудшаться дымом, пылью или мглою.
Явления - указаны атмосферные явления, наблюдавшиеся в срок или в последний час перед сроком; фигурными скобками обозначены явления, наблюдавшиеся между сроками (за 1-3 часа до срока); квадратными скобками обозначены град или гололедные отложения с указанием их диаметра в мм.
Облачность - указаны через наклонную черту общая и нижняя облачность в баллах и высота нижней границы облаков в метрах; квадратными скобками обозначены формы облаков: Ci - перистые, Cs - перисто-слоистые, Cc - перисто-кучевые, Ac - высококучевые, As - высокослоистые, Sc - слоисто-кучевые, Ns - слоисто-дождевые, Cu - кучевые, Cb - кучево-дождевые. Подробнее классификацию облаков см. в Атласе облаков (PDF).
T - Температура воздуха - температура, измеренная на высоте 2 м над землей.
Td - Температура точки росы - температура, при понижении до которой содержащийся в воздухе водяной пар достигнет насыщения.
f - Относительная влажность воздуха - влажноcть воздуха, измеренная на высоте 2 м над землей.
Te - Эффективная температура - температура, которую ощущает одетый по сезону человек в тени. Характеристика душности погоды. При расчете учитывается влияние влажности воздуха и скорости ветра на теплоощущения человека.
Tes - Эффективная температура на солнце - температура, которую ощущает человек, с поправкой на солнечный нагрев. Характеристика знойности погоды. Зависит от высоты солнца над горизонтом, облачности и скорости ветра. Ночью, в пасмурную погоду, а также при ветре 12 м/с и более поправка равна нулю.
P - Атмосферное давление - приведенное к уровню моря атмосферное давление.
Po - Атмосферное давление - измеренное на уровне метеостанции атмосферное давление.
Tmin - Минимальная температура - минимум температуры воздуха на высоте 2 м над землей.
Tmax - Максимальная температура - максимум температуры воздуха на высоте 2 м над землей.
R - Количество осадков - Количество выпавших осадков за период времени, мм. При наведении курсора мыши на число - период времени, за который выпало указанное количество осадков.
R24 - Количество осадков - Количество выпавших осадков за 24 часа, мм.
S - Снежный покров - Высота снежного покрова, см. При наведении курсора мыши на число - состояние снежного покрова и степень покрытия местности в баллах.